Time,TemperatureF,DewpointF,PressureIn,WindDirection,WindDirectionDegrees,WindSpeedMPH,WindSpeedGustMPH,Humidity,HourlyPrecipIn,Conditions,Clouds,dailyrainin,SoftwareType,DateUTC
2013-04-25 00:09:00,41.1,37.0,30.09,WSW,245,9.0,15.0,84,0.00,,,0.03,weatherlink.com 1.10,2013-04-25 05:09:00,
2013-04-25 00:24:00,41.1,35.0,30.09,WNW,292,6.0,25.0,79,0.00,,,0.03,weatherlink.com 1.10,2013-04-25 05:24:00,
2013-04-25 00:39:00,40.7,35.0,30.09,West,280,11.0,19.0,79,0.00,,,0.03,weatherlink.com 1.10,2013-04-25 05:39:00,
2013-04-25 00:54:00,40.2,35.0,30.09,West,263,8.0,19.0,80,0.00,,,0.03,weatherlink.com 1.10,2013-04-25 05:54:00,
2013-04-25 01:09:00,39.9,35.0,30.10,West,276,12.0,20.0,81,0.00,,,0.03,weatherlink.com 1.10,2013-04-25 06:09:00,
2013-04-25 01:24:00,39.7,34.0,30.10,West,267,8.0,19.0,81,0.00,,,0.03,weatherlink.com 1.10,2013-04-25 06:24:00,
2013-04-25 01:39:00,39.6,34.0,30.11,West,271,0.0,14.0,81,0.00,,,0.03,weatherlink.com 1.10,2013-04-25 06:39:00,
2013-04-25 01:54:00,39.5,34.0,30.10,WSW,246,1.0,7.0,82,0.00,,,0.03,weatherlink.com 1.10,2013-04-25 06:54:00,
2013-04-25 02:09:00,39.3,34.0,30.11,West,259,6.0,13.0,82,0.00,,,0.03,weatherlink.com 1.10,2013-04-25 07:09:00,
2013-04-25 02:24:00,39.3,34.0,30.11,WSW,244,5.0,11.0,82,0.00,,,0.03,weatherlink.com 1.10,2013-04-25 07:24:00,
2013-04-25 02:39:00,39.2,35.0,30.11,West,264,10.0,12.0,83,0.00,,,0.03,weatherlink.com 1.10,2013-04-25 07:39:00,
2013-04-25 02:54:00,38.5,34.0,30.11,SW,236,5.0,15.0,85,0.00,,,0.03,weatherlink.com 1.10,2013-04-25 07:54:00,
2013-04-25 03:09:00,38.3,35.0,30.11,WSW,256,6.0,14.0,87,0.00,,,0.03,weatherlink.com 1.10,2013-04-25 08:09:00,
2013-04-25 03:24:00,38.2,35.0,30.12,SW,234,1.0,13.0,88,0.01,,,0.04,weatherlink.com 1.10,2013-04-25 08:24:00,
2013-04-25 03:39:00,38.1,35.0,30.12,SW,227,2.0,10.0,88,0.01,,,0.04,weatherlink.com 1.10,2013-04-25 08:39:00,
2013-04-25 03:54:00,38.0,35.0,30.13,WSW,247,8.0,10.0,89,0.01,,,0.04,weatherlink.com 1.10,2013-04-25 08:54:00,
2013-04-25 04:09:00,38.1,35.0,30.13,WSW,251,5.0,8.0,89,0.01,,,0.04,weatherlink.com 1.10,2013-04-25 09:09:00,
2013-04-25 04:24:00,38.1,35.0,30.14,WSW,250,0.0,4.0,89,0.00,,,0.04,weatherlink.com 1.10,2013-04-25 09:24:00,
2013-04-25 04:39:00,38.1,35.0,30.14,West,267,9.0,13.0,87,0.00,,,0.04,weatherlink.com 1.10,2013-04-25 09:39:00,
2013-04-25 04:54:00,38.4,34.0,30.14,West,259,14.0,15.0,84,0.00,,,0.04,weatherlink.com 1.10,2013-04-25 09:54:00,
2013-04-25 05:09:00,38.4,34.0,30.15,WSW,240,5.0,14.0,84,0.00,,,0.04,weatherlink.com 1.10,2013-04-25 10:09:00,
2013-04-25 05:24:00,38.2,34.0,30.16,West,265,13.0,16.0,84,0.00,,,0.04,weatherlink.com 1.10,2013-04-25 10:24:00,
2013-04-25 05:39:00,38.0,33.0,30.16,West,281,13.0,18.0,83,0.00,,,0.04,weatherlink.com 1.10,2013-04-25 10:39:00,
2013-04-25 05:54:00,37.8,33.0,30.17,West,271,11.0,14.0,83,0.00,,,0.00,weatherlink.com 1.10,2013-04-25 10:54:00,
2013-04-25 06:09:00,37.6,32.0,30.18,WSW,241,7.0,16.0,81,0.00,,,0.00,weatherlink.com 1.10,2013-04-25 11:09:00,
2013-04-25 06:24:00,37.7,33.0,30.20,SW,224,10.0,14.0,82,0.00,,,0.00,weatherlink.com 1.10,2013-04-25 11:24:00,
2013-04-25 06:39:00,37.3,33.0,30.20,WSW,258,6.0,13.0,84,0.00,,,0.00,weatherlink.com 1.10,2013-04-25 11:39:00,
2013-04-25 06:54:00,37.1,33.0,30.20,WSW,246,5.0,14.0,84,0.00,,,0.00,weatherlink.com 1.10,2013-04-25 11:54:00,
2013-04-25 07:09:00,36.8,32.0,30.21,WSW,254,5.0,14.0,84,0.00,,,0.00,weatherlink.com 1.10,2013-04-25 12:09:00,
2013-04-25 07:24:00,36.9,33.0,30.23,West,261,12.0,15.0,84,0.00,,,0.00,weatherlink.com 1.10,2013-04-25 12:24:00,
2013-04-25 07:39:00,36.9,33.0,30.24,West,281,8.0,15.0,84,0.00,,,0.00,weatherlink.com 1.10,2013-04-25 12:39:00,
2013-04-25 07:54:00,36.9,32.0,30.24,WSW,247,5.0,18.0,83,0.00,,,0.00,weatherlink.com 1.10,2013-04-25 12:54:00,
2013-04-25 08:09:00,37.1,32.0,30.25,WSW,254,10.0,15.0,83,0.00,,,0.00,weatherlink.com 1.10,2013-04-25 13:09:00,
2013-04-25 08:24:00,37.2,32.0,30.26,West,259,9.0,18.0,82,0.00,,,0.00,weatherlink.com 1.10,2013-04-25 13:24:00,
2013-04-25 08:39:00,37.3,32.0,30.27,WSW,241,10.0,16.0,82,0.00,,,0.00,weatherlink.com 1.10,2013-04-25 13:39:00,
2013-04-25 08:54:00,37.3,32.0,30.27,West,262,12.0,18.0,82,0.00,,,0.00,weatherlink.com 1.10,2013-04-25 13:54:00,
2013-04-25 09:09:00,37.6,33.0,30.28,West,260,7.0,12.0,82,0.00,,,0.00,weatherlink.com 1.10,2013-04-25 14:09:00,
2013-04-25 09:25:00,37.7,32.0,30.29,WSW,252,7.0,16.0,81,0.00,,,0.00,weatherlink.com 1.10,2013-04-25 14:25:00,
2013-04-25 09:40:00,37.5,32.0,30.29,West,273,7.0,15.0,80,0.00,,,0.00,weatherlink.com 1.10,2013-04-25 14:40:00,
2013-04-25 09:55:00,37.6,32.0,30.30,WSW,242,7.0,14.0,79,0.00,,,0.00,weatherlink.com 1.10,2013-04-25 14:55:00,
2013-04-25 10:10:00,37.7,32.0,30.31,West,259,10.0,14.0,79,0.00,,,0.00,weatherlink.com 1.10,2013-04-25 15:10:00,
2013-04-25 10:25:00,37.9,32.0,30.31,West,273,10.0,11.0,79,0.00,,,0.00,weatherlink.com 1.10,2013-04-25 15:25:00,
2013-04-25 10:40:00,37.9,31.0,30.31,WSW,252,7.0,12.0,77,0.00,,,0.00,weatherlink.com 1.10,2013-04-25 15:40:00,
2013-04-25 10:55:00,38.4,32.0,30.32,SSW,206,7.0,13.0,77,0.00,,,0.00,weatherlink.com 1.10,2013-04-25 15:55:00,
2013-04-25 11:10:00,38.3,32.0,30.32,West,266,0.0,11.0,77,0.00,,,0.00,weatherlink.com 1.10,2013-04-25 16:10:00,
2013-04-25 11:25:00,38.9,32.0,30.33,SW,227,6.0,14.0,76,0.00,,,0.00,weatherlink.com 1.10,2013-04-25 16:25:00,
2013-04-25 11:40:00,39.1,32.0,30.34,West,267,7.0,14.0,75,0.00,,,0.00,weatherlink.com 1.10,2013-04-25 16:40:00,
2013-04-25 11:55:00,39.6,32.0,30.34,WSW,250,9.0,12.0,74,0.00,,,0.00,weatherlink.com 1.10,2013-04-25 16:55:00,
2013-04-25 12:10:00,40.2,32.0,30.34,West,270,8.0,9.0,72,0.00,,,0.00,weatherlink.com 1.10,2013-04-25 17:10:00,
2013-04-25 12:25:00,40.4,32.0,30.34,WSW,247,4.0,8.0,71,0.00,,,0.00,weatherlink.com 1.10,2013-04-25 17:25:00,
2013-04-25 12:40:00,41.1,32.0,30.35,West,261,0.0,10.0,71,0.00,,,0.00,weatherlink.com 1.10,2013-04-25 17:40:00,
2013-04-25 12:55:00,41.8,32.0,30.34,SE,145,5.0,10.0,69,0.00,,,0.00,weatherlink.com 1.10,2013-04-25 17:55:00,
2013-04-25 13:10:00,42.2,32.0,30.34,West,274,9.0,11.0,68,0.00,,,0.00,weatherlink.com 1.10,2013-04-25 18:10:00,
2013-04-25 13:25:00,42.2,32.0,30.34,South,174,0.0,13.0,67,0.00,,,0.00,weatherlink.com 1.10,2013-04-25 18:25:00,
2013-04-25 13:40:00,42.8,32.0,30.34,SW,219,6.0,12.0,66,0.00,,,0.00,weatherlink.com 1.10,2013-04-25 18:40:00,
2013-04-25 13:55:00,43.3,32.0,30.33,SSW,201,9.0,12.0,65,0.00,,,0.00,weatherlink.com 1.10,2013-04-25 18:55:00,
2013-04-25 14:10:00,43.3,31.0,30.33,SE,132,6.0,12.0,63,0.00,,,0.00,weatherlink.com 1.10,2013-04-25 19:10:00,
2013-04-25 14:25:00,44.5,32.0,30.33,SSW,207,9.0,14.0,61,0.00,,,0.00,weatherlink.com 1.10,2013-04-25 19:25:00,
2013-04-25 14:40:00,45.1,32.0,30.32,South,184,9.0,12.0,60,0.00,,,0.00,weatherlink.com 1.10,2013-04-25 19:40:00,
2013-04-25 14:55:00,46.5,32.0,30.32,South,182,0.0,12.0,58,0.00,,,0.00,weatherlink.com 1.10,2013-04-25 19:55:00,
2013-04-25 15:10:00,46.5,32.0,30.32,South,175,8.0,11.0,58,0.00,,,0.00,weatherlink.com 1.10,2013-04-25 20:10:00,
2013-04-25 15:25:00,46.1,32.0,30.32,SW,215,5.0,14.0,58,0.00,,,0.00,weatherlink.com 1.10,2013-04-25 20:25:00,
2013-04-25 15:40:00,46.3,32.0,30.32,SSE,150,5.0,12.0,58,0.00,,,0.00,weatherlink.com 1.10,2013-04-25 20:40:00,
2013-04-25 15:55:00,47.3,32.0,30.31,ESE,114,10.0,12.0,56,0.00,,,0.00,weatherlink.com 1.10,2013-04-25 20:55:00,
2013-04-25 16:10:00,48.3,33.0,30.32,SE,144,10.0,11.0,56,0.00,,,0.00,weatherlink.com 1.10,2013-04-25 21:10:00,
2013-04-25 16:25:00,48.9,33.0,30.31,WSW,240,0.0,8.0,54,0.00,,,0.00,weatherlink.com 1.10,2013-04-25 21:25:00,
2013-04-25 16:40:00,48.5,31.0,30.31,SSW,192,6.0,12.0,52,0.00,,,0.00,weatherlink.com 1.10,2013-04-25 21:40:00,
2013-04-25 16:55:00,48.8,32.0,30.31,SE,145,0.0,10.0,52,0.00,,,0.00,weatherlink.com 1.10,2013-04-25 21:55:00,
2013-04-25 17:11:00,50.7,32.0,30.30,SSW,200,0.0,7.0,49,0.00,,,0.00,weatherlink.com 1.10,2013-04-25 22:11:00,
2013-04-25 17:26:00,49.5,31.0,30.30,SSE,148,6.0,15.0,49,0.00,,,0.00,weatherlink.com 1.10,2013-04-25 22:26:00,
2013-04-25 17:41:00,49.6,30.0,30.30,ESE,102,1.0,13.0,47,0.00,,,0.00,weatherlink.com 1.10,2013-04-25 22:41:00,
2013-04-25 17:56:00,49.9,30.0,30.30,SE,144,9.0,13.0,46,0.00,,,0.00,weatherlink.com 1.10,2013-04-25 22:56:00,
2013-04-25 18:11:00,50.2,29.0,30.29,SSE,161,8.0,13.0,45,0.00,,,0.00,weatherlink.com 1.10,2013-04-25 23:11:00,
2013-04-25 18:26:00,50.3,29.0,30.29,ESE,120,10.0,12.0,44,0.00,,,0.00,weatherlink.com 1.10,2013-04-25 23:26:00,
2013-04-25 18:41:00,50.4,29.0,30.29,SE,143,7.0,13.0,44,0.00,,,0.00,weatherlink.com 1.10,2013-04-25 23:41:00,
2013-04-25 18:56:00,50.4,28.0,30.29,SSE,150,11.0,13.0,43,0.00,,,0.00,weatherlink.com 1.10,2013-04-25 23:56:00,
2013-04-25 19:11:00,50.5,28.0,30.28,SSE,165,10.0,11.0,42,0.00,,,0.00,weatherlink.com 1.10,2013-04-26 00:11:00,
2013-04-25 19:26:00,50.4,28.0,30.28,SSE,153,3.0,10.0,43,0.00,,,0.00,weatherlink.com 1.10,2013-04-26 00:26:00,
2013-04-25 19:41:00,50.1,28.0,30.28,SSE,157,6.0,10.0,43,0.00,,,0.00,weatherlink.com 1.10,2013-04-26 00:41:00,
2013-04-25 19:56:00,50.0,29.0,30.28,SSE,154,4.0,7.0,44,0.00,,,0.00,weatherlink.com 1.10,2013-04-26 00:56:00,
2013-04-25 20:11:00,49.7,28.0,30.28,SSE,149,7.0,8.0,44,0.00,,,0.00,weatherlink.com 1.10,2013-04-26 01:11:00,
2013-04-25 20:26:00,49.4,28.0,30.28,SSE,148,5.0,7.0,44,0.00,,,0.00,weatherlink.com 1.10,2013-04-26 01:26:00,
2013-04-25 20:41:00,49.2,29.0,30.29,SE,144,6.0,9.0,45,0.00,,,0.00,weatherlink.com 1.10,2013-04-26 01:41:00,
2013-04-25 20:56:00,48.9,29.0,30.30,SE,144,6.0,7.0,46,0.00,,,0.00,weatherlink.com 1.10,2013-04-26 01:56:00,
2013-04-25 21:11:00,48.4,29.0,30.31,SSE,151,6.0,10.0,47,0.00,,,0.00,weatherlink.com 1.10,2013-04-26 02:11:00,
2013-04-25 21:26:00,47.9,29.0,30.32,SSE,152,7.0,7.0,49,0.00,,,0.00,weatherlink.com 1.10,2013-04-26 02:26:00,
2013-04-25 21:41:00,47.3,29.0,30.32,SSE,148,7.0,9.0,50,0.00,,,0.00,weatherlink.com 1.10,2013-04-26 02:41:00,
2013-04-25 21:56:00,46.7,28.0,30.32,SE,130,7.0,9.0,49,0.00,,,0.00,weatherlink.com 1.10,2013-04-26 02:56:00,
2013-04-25 22:11:00,46.4,28.0,30.32,SE,130,5.0,8.0,50,0.00,,,0.00,weatherlink.com 1.10,2013-04-26 03:11:00,
2013-04-25 22:26:00,46.1,28.0,30.31,SE,132,4.0,9.0,50,0.00,,,0.00,weatherlink.com 1.10,2013-04-26 03:26:00,
2013-04-25 22:41:00,45.4,29.0,30.30,SE,131,5.0,9.0,52,0.00,,,0.00,weatherlink.com 1.10,2013-04-26 03:41:00,
2013-04-25 22:56:00,45.2,29.0,30.30,SE,132,7.0,8.0,53,0.00,,,0.00,weatherlink.com 1.10,2013-04-26 03:56:00,
2013-04-25 23:11:00,44.6,29.0,30.30,SE,137,5.0,8.0,55,0.00,,,0.00,weatherlink.com 1.10,2013-04-26 04:11:00,
2013-04-25 23:26:00,44.1,30.0,30.29,SE,136,7.0,8.0,58,0.00,,,0.00,weatherlink.com 1.10,2013-04-26 04:26:00,
2013-04-25 23:41:00,44.0,30.0,30.29,SE,146,3.0,10.0,58,0.00,,,0.00,weatherlink.com 1.10,2013-04-26 04:41:00,
2013-04-25 23:56:00,44.5,29.0,30.28,SE,134,6.0,10.0,55,0.00,,,0.00,weatherlink.com 1.10,2013-04-26 04:56:00,